SCP
0 0 0 0 0 0 0 0 0 0 0 0 0 0 0 0 0 0 0 0 0 0 0 0 0 0 0 0 0 0 0 0 0 0 0 0 0 0
0 0 0 0 0 0 0 0 0 0 0 0 0 0 0 0 0 0 0 0 0 0 0 0 0 0 0 0 0 0 0 0 0 0 0 0 0 1
0 0 0 0 0 0 0 0 0 0 0 0 0 0 0 0 0 0 0 0 0 0 0 0 0 0 0 0 0 0 0 0 0 0 0 0 0 0
0 0 0 0 0 0 0 0 0 0 0 0 0 0 0 0 0 0 -0 0 -0 -0 0 0 0 0 0 0 0 0 -0 -0 -0 0 0 0 0 0
0 0 0 0 0 0 0 0 0 0 0 -0 0 0 0 -0 0 -0 -0 -0 -0 -0 -0 -0 -0 -0 0 -0 0 -0 0 -0 -0 -0 -0 -0 -0 0
0 0 0 0 0 0 0 0 0 0 0 0 -0 0 -0 -0 -0 -0 -0 -0 -0 -0 -0 -0 0 0 0 0 0 0 0 -0 -0 -0 0 0 0 0
0 0 0 0 0 0 0 0 0 -0 -0 -0 -0 -0 -0 -0 -0 -0 -0 -0 -0 -0 -0 0 0 0 0 -0 -0 -0 -0 -0 -0 -0 -0 -0 -0 -0
0 0 0 0 0 0 0 0 0 0 0 0 0 0 0 0 -0 0 0 -0 -0 -0 0 0 0 0 0 0 -0 -0 0 -0 -0 -0 -0 -0 -0 -0
0 0 0 0 0 0 0 0 0 0 0 0 0 0 0 0 0 0 0 0 0 0 0 0 0 0 0 0 0 0 0 -0 -0 -0 -0 -0 0 0
0 0 0 0 0 0 0 0 0 0 0 0 0 0 0 0 0 0 0 0 0 0 -0 0 0 0 0 0 0 0 0 0 0 0 0 0 0 0
0 0 -0 -0 0 0 0 0 0 0 0 0 0 0 0 0 0 0 0 0 0 0 0 0 0 0 0 0 0 0 0 0 0 0 0 0 -0 -0
0 0 0 0 0 0 0 0 0 0 0 0 0 0 0 0 0 0 0 0 0 0 0 0 0 0 0 0 0 0 0 0 0 0 0 -0 -0 0
0 0 0 0 0 0 0 0 0 0 0 0 0 0 0 0 0 0 0 0 0 0 0 0 0 0 0 -0 0 0 0 0 0 0 0 0 0 0
0 -0 -0 0 0 0 0 0 0 0 0 0 0 0 0 0 0 0 0 0 0 0 0 0 0 0 0 0 0 0 0 0 0 0 0 0 0 0
0 0 0 0 0 0 0 0 0 0 0 0 0 0 0 0 0 0 0 0 0 0 0 0 0 0 0 0 0 0 0 0 0 0 0 0 0 0
0 0 0 0 0 0 0 0 0 0 0 0 0 0 0 0 0 0 0 0 0 0 0 0 0 0 0 0 0 0 0 0 0 0 0 0 0 0
0 0 0 0 0 0 0 0 0 0 0 0 0 0 0 0 0 0 0 0 0 0 0 0 0 0 0 0 0 0 0 0 0 0 0 0 0 0
0 0 0 0 0 0 0 0 0 0 0 0 0 0 0 0 0 0 0 0 0 0 0 0 0 0 0 0 0 0 0 0 0 0 0 0 0 0
0 0 0 0 0 0 0 0 0 0 0 0 0 0 0 0 0 0 0 0 0 0 0 0 0 0 0 0 0 0 0 0 0 0 0 0 0 0
0 0 0 0 0 0 0 0 0 0 0 0 0 0 0 0 0 0 0 0 0 0 0 0 0 0 0 0 0 0 0 0 0 0 0 0 0 0
0 0 0 0 0 0 0 0 0 0 0 0 0 0 0 0 0 0 0 0 0 0 0 0 0 0 0 0 0 0 0 0 0 0 0 0 0 0
0 0 0 0 0 0 0 0 0 0 0 0 0 0 0 0 0 0 0 0 0 0 0 0 0 0 0 0 0 0 0 0 0 0 0 0 0 0
0 0 0 0 0 0 0 0 0 0 0 0 0 0 0 0 0 0 0 0 0 0 0 0 0 0 0 0 0 0 0 0 0 0 0 0 0 0
Wind_Speed_500mb
41 35 30 24 21 23 22 19 14 6 5 10 26 30 40 45 48 52 54 58 61 63 67 71 74 77 79 75 69 69 70 73 73 74 74 72 74 75
40 33 34 34 26 22 21 19 17 17 11 22 32 41 47 51 55 57 61 65 68 72 75 79 84 87 89 89 80 67 65 69 73 73 74 74 75 76
45 39 38 32 28 27 26 24 23 24 26 33 40 46 53 59 63 63 68 74 79 81 84 84 87 86 71 64 66 69 76 77 81 84 87 89 93 97
45 38 37 33 30 30 30 31 34 37 39 45 52 59 64 70 74 81 87 85 92 88 87 89 75 60 71 86 82 77 74 75 73 73 75 79 82 88
44 40 39 37 38 39 39 41 43 46 51 57 65 69 72 75 85 91 92 93 90 91 94 78 75 78 87 84 80 76 75 72 72 72 74 78 83 88
46 45 44 44 45 46 49 52 54 57 61 64 66 67 74 80 88 95 102 98 103 101 87 82 92 91 90 83 82 84 84 81 75 76 79 81 81 84
46 46 47 49 51 53 54 54 56 58 60 62 60 74 80 88 90 91 94 101 102 78 84 105 102 104 99 95 94 94 89 82 82 83 85 87 90 91
47 48 47 49 52 56 56 56 58 58 59 62 69 75 77 79 82 83 89 95 88 88 111 120 111 116 110 108 104 98 91 86 84 86 86 86 87 89
50 50 51 51 50 53 52 54 55 55 54 58 65 67 73 71 75 80 81 85 96 104 106 123 117 119 119 118 114 104 95 84 84 85 84 87 89 93
48 49 51 53 55 59 61 64 66 66 59 62 62 62 60 61 60 66 73 85 99 107 84 108 119 131 132 129 112 98 89 92 85 85 90 94 98 101
48 53 57 59 59 67 65 65 65 65 64 57 54 55 55 55 58 67 78 93 113 123 107 80 110 133 138 128 111 105 111 101 101 101 95 93 95 100
54 57 59 63 64 58 63 66 71 67 70 68 57 53 53 57 58 66 81 96 108 131 105 102 119 94 87 100 117 124 124 125 128 112 104 98 93 96
59 64 64 63 62 65 67 64 59 59 66 66 67 64 63 69 78 84 89 98 111 120 124 91 114 111 82 113 127 134 136 142 142 137 128 107 93 85
61 64 67 68 68 66 64 62 60 63 68 72 76 76 79 85 95 100 103 107 111 120 129 109 108 108 111 122 136 137 143 143 130 119 118 109 98 99
64 65 64 65 65 62 59 60 63 64 69 76 81 84 89 98 106 113 116 117 126 131 119 108 101 104 108 126 138 144 139 130 129 100 101 108 112 111
60 61 62 59 57 57 56 53 53 59 67 76 83 88 96 103 111 111 121 128 137 145 127 108 97 94 103 119 126 143 136 125 132 123 119 118 111 116
63 64 65 67 68 64 59 56 59 62 69 72 81 91 99 105 114 119 127 133 124 130 144 127 129 127 117 122 136 138 139 127 123 121 111 111 99 101
66 70 70 68 64 63 62 62 62 66 69 76 87 97 107 117 129 132 132 121 117 130 127 141 137 126 119 110 97 127 129 129 127 112 117 122 121 107
63 62 63 61 59 58 60 65 73 74 78 86 96 107 115 124 132 134 134 123 120 121 131 136 128 115 117 119 120 93 128 140 144 132 111 109 116 119
58 62 62 61 59 59 62 69 76 81 85 93 103 113 119 128 134 130 125 117 120 128 134 135 123 116 118 141 154 148 113 119 116 128 127 124 122 122
59 59 59 59 57 58 63 70 79 86 92 101 111 118 124 129 128 126 126 127 124 128 133 139 145 134 131 131 131 142 148 127 117 122 128 120 125 116
60 62 62 60 57 60 66 75 84 90 98 106 115 122 131 127 129 127 125 124 132 137 142 141 139 133 128 122 132 141 158 161 142 128 111 109 120 115
61 63 65 63 59 61 69 79 86 95 100 109 118 126 128 135 136 127 125 128 134 140 139 141 139 135 128 124 124 135 143 152 145 143 148 93 90 101
Wind_Direction_500mb
111 108 95 89 78 60 50 44 46 14 322 301 326 317 318 317 315 313 310 306 304 301 299 299 299 298 299 300 304 304 303 302 300 296 294 292 288 283
87 81 75 78 81 77 62 48 33 17 355 322 326 323 319 314 311 310 308 307 305 304 303 302 302 300 299 299 304 308 304 300 297 293 291 290 286 284
95 93 87 78 68 58 43 28 13 359 345 330 327 323 321 320 316 315 314 313 311 310 310 310 311 311 313 312 310 305 304 298 293 292 291 288 285 284
88 83 74 62 50 40 26 15 7 357 345 337 331 330 330 328 324 322 321 321 319 321 323 324 322 316 317 315 312 305 303 301 298 295 290 287 285 284
73 64 56 42 33 22 13 4 358 351 346 341 336 335 333 330 325 325 326 325 325 325 328 325 322 321 321 321 314 310 305 301 298 295 294 291 289 286
56 47 38 27 20 14 8 1 355 349 343 340 336 332 330 328 328 328 327 327 327 329 329 326 324 323 321 318 315 314 310 306 301 296 292 289 288 287
46 35 28 21 13 8 3 357 353 349 344 340 333 333 333 333 334 333 329 329 328 333 325 323 326 323 325 323 321 316 315 305 296 293 291 289 287 285
37 29 22 13 8 2 2 356 352 346 340 334 333 332 332 334 332 333 330 331 326 330 326 321 326 326 325 325 319 317 314 309 299 292 290 289 286 284
28 19 12 7 360 353 354 346 343 342 340 338 335 337 333 337 333 327 328 325 320 321 324 322 328 323 325 319 319 318 312 307 303 293 289 286 285 282
20 12 5 359 358 352 349 345 343 343 340 338 336 332 330 328 324 322 323 320 317 322 322 315 326 323 321 315 316 316 315 313 305 293 289 286 284 282
14 9 5 1 356 349 341 337 334 333 334 335 332 329 326 326 327 326 328 327 322 320 325 316 316 315 315 315 317 319 318 311 305 300 292 289 287 285
9 3 357 354 352 344 339 341 338 333 332 330 329 327 324 324 327 329 329 323 322 318 321 311 312 309 309 306 313 319 316 318 315 306 294 292 290 287
3 359 356 352 345 342 339 336 335 323 327 328 328 327 327 330 330 329 328 324 319 311 321 307 306 306 292 297 309 316 315 315 311 309 307 299 293 288
359 355 352 347 342 340 336 334 329 327 327 328 328 330 330 329 327 326 325 322 320 317 323 321 303 300 293 289 289 303 305 306 300 295 294 294 291 288
354 349 343 340 336 333 331 329 328 329 330 328 328 328 328 326 325 327 325 326 324 324 323 317 303 299 297 289 288 295 299 297 297 294 295 290 288 286
345 340 337 333 330 329 330 331 331 331 332 332 329 328 326 327 326 329 327 329 327 329 327 318 312 301 290 288 289 289 291 287 291 289 288 285 283 283
339 335 335 337 338 335 335 335 334 333 332 330 327 327 327 328 329 331 330 328 319 318 324 330 329 315 300 295 291 291 293 291 291 292 292 288 286 283
335 334 335 332 330 329 332 331 331 332 332 330 329 330 331 331 331 331 330 321 313 314 308 313 308 303 298 291 288 292 293 294 296 294 291 288 286 284
330 331 327 325 324 324 325 327 328 331 331 330 331 333 332 331 330 328 326 318 310 307 305 306 303 302 300 297 303 297 295 295 296 294 290 287 285 285
328 327 326 324 321 321 323 325 327 329 330 330 331 331 331 331 328 324 317 308 306 306 304 303 302 302 299 297 298 298 295 291 291 290 289 288 284 285
327 326 326 324 321 320 323 325 326 327 330 331 332 332 333 331 325 319 314 310 308 305 303 303 304 305 303 303 299 299 300 298 293 288 289 287 286 286
326 326 328 327 324 323 325 325 326 328 330 331 331 331 333 330 324 317 312 308 308 306 301 304 308 310 308 303 300 301 305 306 304 299 291 278 273 274
325 325 329 329 326 324 325 327 329 330 332 331 331 331 332 329 326 319 313 311 307 306 307 309 311 312 308 307 305 304 305 307 307 307 302 292 276 263
Wind_Speed_850mb
41 35 30 24 21 23 22 19 14 6 5 10 26 30 40 45 48 52 54 58 61 63 67 71 74 77 79 75 69 69 70 73 73 74 74 72 74 75
40 33 34 34 26 22 21 19 17 17 11 22 32 41 47 51 55 57 61 65 68 72 75 79 84 87 89 89 80 67 65 69 73 73 74 74 75 76
45 39 38 32 28 27 26 24 23 24 26 33 40 46 53 59 63 63 68 74 79 81 84 84 87 86 71 64 66 69 76 77 81 84 87 89 93 97
45 38 37 33 30 30 30 31 34 37 39 45 52 59 64 70 74 81 87 85 92 88 87 89 75 60 71 86 82 77 74 75 73 73 75 79 82 88
44 40 39 37 38 39 39 41 43 46 51 57 65 69 72 75 85 91 92 93 90 91 94 78 75 78 87 84 80 76 75 72 72 72 74 78 83 88
46 45 44 44 45 46 49 52 54 57 61 64 66 67 74 80 88 95 102 98 103 101 87 82 92 91 90 83 82 84 84 81 75 76 79 81 81 84
46 46 47 49 51 53 54 54 56 58 60 62 60 74 80 88 90 91 94 101 102 78 84 105 102 104 99 95 94 94 89 82 82 83 85 87 90 91
47 48 47 49 52 56 56 56 58 58 59 62 69 75 77 79 82 83 89 95 88 88 111 120 111 116 110 108 104 98 91 86 84 86 86 86 87 89
50 50 51 51 50 53 52 54 55 55 54 58 65 67 73 71 75 80 81 85 96 104 106 123 117 119 119 118 114 104 95 84 84 85 84 87 89 93
48 49 51 53 55 59 61 64 66 66 59 62 62 62 60 61 60 66 73 85 99 107 84 108 119 131 132 129 112 98 89 92 85 85 90 94 98 101
48 53 57 59 59 67 65 65 65 65 64 57 54 55 55 55 58 67 78 93 113 123 107 80 110 133 138 128 111 105 111 101 101 101 95 93 95 100
54 57 59 63 64 58 63 66 71 67 70 68 57 53 53 57 58 66 81 96 108 131 105 102 119 94 87 100 117 124 124 125 128 112 104 98 93 96
59 64 64 63 62 65 67 64 59 59 66 66 67 64 63 69 78 84 89 98 111 120 124 91 114 111 82 113 127 134 136 142 142 137 128 107 93 85
61 64 67 68 68 66 64 62 60 63 68 72 76 76 79 85 95 100 103 107 111 120 129 109 108 108 111 122 136 137 143 143 130 119 118 109 98 99
64 65 64 65 65 62 59 60 63 64 69 76 81 84 89 98 106 113 116 117 126 131 119 108 101 104 108 126 138 144 139 130 129 100 101 108 112 111
60 61 62 59 57 57 56 53 53 59 67 76 83 88 96 103 111 111 121 128 137 145 127 108 97 94 103 119 126 143 136 125 132 123 119 118 111 116
63 64 65 67 68 64 59 56 59 62 69 72 81 91 99 105 114 119 127 133 124 130 144 127 129 127 117 122 136 138 139 127 123 121 111 111 99 101
66 70 70 68 64 63 62 62 62 66 69 76 87 97 107 117 129 132 132 121 117 130 127 141 137 126 119 110 97 127 129 129 127 112 117 122 121 107
63 62 63 61 59 58 60 65 73 74 78 86 96 107 115 124 132 134 134 123 120 121 131 136 128 115 117 119 120 93 128 140 144 132 111 109 116 119
58 62 62 61 59 59 62 69 76 81 85 93 103 113 119 128 134 130 125 117 120 128 134 135 123 116 118 141 154 148 113 119 116 128 127 124 122 122
59 59 59 59 57 58 63 70 79 86 92 101 111 118 124 129 128 126 126 127 124 128 133 139 145 134 131 131 131 142 148 127 117 122 128 120 125 116
60 62 62 60 57 60 66 75 84 90 98 106 115 122 131 127 129 127 125 124 132 137 142 141 139 133 128 122 132 141 158 161 142 128 111 109 120 115
61 63 65 63 59 61 69 79 86 95 100 109 118 126 128 135 136 127 125 128 134 140 139 141 139 135 128 124 124 135 143 152 145 143 148 93 90 101
Wind_Direction_850mb
111 108 95 89 78 60 50 44 46 14 322 301 326 317 318 317 315 313 310 306 304 301 299 299 299 298 299 300 304 304 303 302 300 296 294 292 288 283
87 81 75 78 81 77 62 48 33 17 355 322 326 323 319 314 311 310 308 307 305 304 303 302 302 300 299 299 304 308 304 300 297 293 291 290 286 284
95 93 87 78 68 58 43 28 13 359 345 330 327 323 321 320 316 315 314 313 311 310 310 310 311 311 313 312 310 305 304 298 293 292 291 288 285 284
88 83 74 62 50 40 26 15 7 357 345 337 331 330 330 328 324 322 321 321 319 321 323 324 322 316 317 315 312 305 303 301 298 295 290 287 285 284
73 64 56 42 33 22 13 4 358 351 346 341 336 335 333 330 325 325 326 325 325 325 328 325 322 321 321 321 314 310 305 301 298 295 294 291 289 286
56 47 38 27 20 14 8 1 355 349 343 340 336 332 330 328 328 328 327 327 327 329 329 326 324 323 321 318 315 314 310 306 301 296 292 289 288 287
46 35 28 21 13 8 3 357 353 349 344 340 333 333 333 333 334 333 329 329 328 333 325 323 326 323 325 323 321 316 315 305 296 293 291 289 287 285
37 29 22 13 8 2 2 356 352 346 340 334 333 332 332 334 332 333 330 331 326 330 326 321 326 326 325 325 319 317 314 309 299 292 290 289 286 284
28 19 12 7 360 353 354 346 343 342 340 338 335 337 333 337 333 327 328 325 320 321 324 322 328 323 325 319 319 318 312 307 303 293 289 286 285 282
20 12 5 359 358 352 349 345 343 343 340 338 336 332 330 328 324 322 323 320 317 322 322 315 326 323 321 315 316 316 315 313 305 293 289 286 284 282
14 9 5 1 356 349 341 337 334 333 334 335 332 329 326 326 327 326 328 327 322 320 325 316 316 315 315 315 317 319 318 311 305 300 292 289 287 285
9 3 357 354 352 344 339 341 338 333 332 330 329 327 324 324 327 329 329 323 322 318 321 311 312 309 309 306 313 319 316 318 315 306 294 292 290 287
3 359 356 352 345 342 339 336 335 323 327 328 328 327 327 330 330 329 328 324 319 311 321 307 306 306 292 297 309 316 315 315 311 309 307 299 293 288
359 355 352 347 342 340 336 334 329 327 327 328 328 330 330 329 327 326 325 322 320 317 323 321 303 300 293 289 289 303 305 306 300 295 294 294 291 288
354 349 343 340 336 333 331 329 328 329 330 328 328 328 328 326 325 327 325 326 324 324 323 317 303 299 297 289 288 295 299 297 297 294 295 290 288 286
345 340 337 333 330 329 330 331 331 331 332 332 329 328 326 327 326 329 327 329 327 329 327 318 312 301 290 288 289 289 291 287 291 289 288 285 283 283
339 335 335 337 338 335 335 335 334 333 332 330 327 327 327 328 329 331 330 328 319 318 324 330 329 315 300 295 291 291 293 291 291 292 292 288 286 283
335 334 335 332 330 329 332 331 331 332 332 330 329 330 331 331 331 331 330 321 313 314 308 313 308 303 298 291 288 292 293 294 296 294 291 288 286 284
330 331 327 325 324 324 325 327 328 331 331 330 331 333 332 331 330 328 326 318 310 307 305 306 303 302 300 297 303 297 295 295 296 294 290 287 285 285
328 327 326 324 321 321 323 325 327 329 330 330 331 331 331 331 328 324 317 308 306 306 304 303 302 302 299 297 298 298 295 291 291 290 289 288 284 285
327 326 326 324 321 320 323 325 326 327 330 331 332 332 333 331 325 319 314 310 308 305 303 303 304 305 303 303 299 299 300 298 293 288 289 287 286 286
326 326 328 327 324 323 325 325 326 328 330 331 331 331 333 330 324 317 312 308 308 306 301 304 308 310 308 303 300 301 305 306 304 299 291 278 273 274
325 325 329 329 326 324 325 327 329 330 332 331 331 331 332 329 326 319 313 311 307 306 307 309 311 312 308 307 305 304 305 307 307 307 302 292 276 263